Welcome to the New NWS' Forecast!
Most changes are behind the scenes, but click here for differences you might notice.
Latest weather observations around

Seattle, Seattle Boeing Field (KBFI)

Using English Units (Switch to International System of Units)
Date/ Time (PDT) Wind (mph) Vis. (mi) Weather Sky Cond. Temp (°F) Rel. Humidity Wind Chill (°F) Heat Index (°F) Pressure Precip. (in)
Air Dwpt 6 hour Altimeter (inHg) Sea level (inHg) 1 hr 3 hr 6 hr
Max Min
Oct 21 11:53 Calm 1 Fog/Mist OVC003 49 45     86%     30.04 30.04      
Oct 21 10:53 Calm 1 Fog/Mist OVC003 46 44     93%     30.04 30.04      
Oct 21 09:53 Calm 0.25 Fog VV002 46 45     96%     30.04 30.04      
Oct 21 08:53 E 5 0.25 Fog VV002 45 44     97% 43   30.04 30.04      
Oct 21 07:53 Calm 0.25 Fog VV003 46 45     96%     30.03 30.03      
Oct 21 06:53 Calm 0.25 Fog VV002 46 45     96%     30.03 30.03      
Oct 21 05:53 Calm 0.25 Fog VV002 46 45     96%     30.03 30.03      
Oct 21 04:53 Calm 0.25 Fog VV002 47 46     97%     30.03 30.03      
Oct 21 03:53 Calm 0.25 Fog VV002 46 45     96%     30.04 30.03      
Oct 21 02:59 3 0.5 Fog OVC002 47 46     97% 46   30.04        
Oct 21 02:53 3 0.25 Fog VV001 47 46     97% 46   30.04 30.04      
Oct 21 01:53 Calm 0.25 Fog VV002 47 46     97%     30.05 30.04      
Oct 21 00:53 Calm 0.12 Fog VV001 47 46     97%     30.05 30.05      
Oct 21 00:19 Calm 0.25 Fog VV001 47 45     93%     30.06        
Oct 21 00:08 Calm 0.5 Fog VV001 47 46     97%     30.05        
Oct 20 23:55 Calm 1.75 Fog/Mist VV001 47 45     93%     30.06        
Oct 20 23:53 Calm 2 Fog/Mist VV001 47 44     90%     30.06 30.05      
Oct 20 23:51 Calm 2 Fog/Mist VV001 46 45     93%     30.06        
Oct 20 23:46 Calm 2 Fog/Mist SCT003 47 44     90%     30.06        
Oct 20 22:53 Calm 4 Fog/Mist and Haze CLR 46 44     93%     30.06 30.05      
Oct 20 21:53 Calm 6 Haze CLR 48 45     89%     30.06 30.06      
Oct 20 20:53 Calm 8 Clear CLR 50 46     86%     30.07 30.06      
Oct 20 19:53 NE 3 10 Clear CLR 51 46     83%     30.07 30.07      
Oct 20 18:53 Calm 10 Clear CLR 53 46     77%     30.08 30.07      
Oct 20 17:53 NNE 5 10 Clear CLR 56 46     69%     30.08 30.08      
Oct 20 16:53 NE 5 8 Clear CLR 58 46     65%     30.09 30.09      
Oct 20 15:53 6 8 Clear CLR 57 46     67%     30.12 30.11      
Oct 20 14:53 7 10 Partly Cloudy SCT007 55 47     74%     30.14 30.13      
Oct 20 14:45 ENE 6 10 Partly Cloudy SCT007 56 46     69%     30.14        
Oct 20 13:53 5 8 Cloudy BKN007 OVC012 53 47     80%     30.16 30.16      
Oct 20 13:19 NE 7 7 Cloudy BKN007 OVC012 53 47     80%     30.18        
Oct 20 12:53 NE 5 6 Haze OVC010 53 47     80%     30.19 30.19      
Oct 20 11:53 5 5 Fog/Mist OVC009 52 47     83%     30.21 30.21      
Oct 20 10:53 5 4 Fog/Mist OVC006 50 46     86%     30.22 30.22      
Oct 20 09:53 Calm 5 Fog/Mist OVC005 49 46     90%     30.23 30.23      
Oct 20 08:53 Calm 4 Fog/Mist OVC006 49 46     90%     30.23 30.23      
Oct 20 08:22 Calm 5 Fog/Mist OVC007 49 46     90%     30.24        
Oct 20 07:53 3 9 Cloudy OVC010 49 46     90% 48   30.24 30.24      
Oct 20 07:38 N 3 9 Mostly Cloudy BKN011 49 46     90% 48   30.24        
Oct 20 06:53 Calm 7 Clear CLR 45 43     93%     30.25 30.24      
Oct 20 05:53 Calm 9 Clear CLR 47 44     90%     30.25 30.25      
Oct 20 04:53 Calm 9 Clear CLR 48 44     86%     30.25 30.25      
Oct 20 03:53 Calm 4 Fog/Mist CLR 45 42     90%     30.25 30.25      
Oct 20 02:53 Calm 3 Fog/Mist CLR 46 43     89%     30.25 30.25      
Oct 20 01:53 Calm 7 Mostly Clear FEW002 47 44     90%     30.25 30.25      
Oct 20 00:53 Calm 7 Clear CLR 48 45     89%     30.25 30.24      
Oct 19 23:53 Calm 10 Clear CLR 48 45     89%     30.25 30.25      
Oct 19 22:53 Calm 10 Clear CLR 49 45     86%     30.26 30.25      
Oct 19 21:53 Calm 10 Clear CLR 50 46     86%     30.26 30.25      
Oct 19 20:53 Calm 10 Haze CLR 52 47     83%     30.26 30.26      
Oct 19 19:53 Calm 10 Haze CLR 53 47     80%     30.25 30.25      
Oct 19 18:53 NW 3 10 Haze CLR 54 48     80%     30.25 30.24      
Oct 19 17:53 NW 3 10 Haze CLR 55 48     77%     30.23 30.23      
Oct 19 16:53 NW 6 10 Haze CLR 58 47     67%     30.24 30.24      
Oct 19 15:53 5 7 Haze CLR 59 49     69%     30.25 30.24      
Oct 19 14:53 NNW 5 50.89 Haze CLR 57 49     74%     30.26 30.26      
Oct 19 13:53 5 6 Haze CLR 57 49     74%     30.27 30.27      
Oct 19 12:53 Calm 5 Haze FEW008 55 48     77%     30.29 30.29      
Oct 19 12:25 3 5 Haze SCT006 SCT010 53 48     83%     30.3        
Oct 19 11:53 Calm 1.5 Fog/Mist OVC003 49 47     93%     30.31 30.31      
Oct 19 11:38 Calm 1 Fog/Mist OVC003 49 48     97%     30.31        
Oct 19 10:53 SE 5 0.25 Fog VV001 49 47     93% 47   30.31 30.3      
Oct 19 09:53 Calm 0.06 Fog VV001 48 48     100%     30.31 30.3      
Oct 19 08:53 SE 3 0.12 Fog VV001 47 46     97% 46   30.3 30.3      
Oct 19 07:53 SSE 5 0.12 Fog VV001 46 44     93% 44   30.29 30.28      
Oct 19 07:44 SE 3 0.12 Fog VV001 46 44     93% 45   30.28        
Oct 19 06:53 SE 3 5 Patchy Fog OVC003 46 44     93% 45   30.28 30.27      
Oct 19 06:26 SSE 3 5 Patchy Fog BKN003 45 42     90% 44   30.27        
Oct 19 05:53 SSE 3 5 Patchy Fog SCT005 43 41     93% 41   30.26 30.26      
Oct 19 04:53 SE 3 6 Patchy Fog CLR 44 41     89% 43   30.25 30.25      
Oct 19 03:53 SSE 5 9 Mostly Clear FEW010 44 42     93% 41   30.25 30.25      
Oct 19 02:53 Calm 8 Clear CLR 47 43     86%     30.25 30.25      
Oct 19 01:53 Calm 10 Clear CLR 47 44     90%     30.24 30.24      
Oct 19 00:53 Calm 10 Clear   48 44     86%     30.24 30.23      
Oct 18 23:53 Calm 10 Clear CLR 50 46     86%     30.23 30.22      
Oct 18 22:53 Calm 10 Clear CLR 50 45     83%     30.22 30.22      
Oct 18 21:53 Calm 10 Clear CLR 53 46     77%     30.21 30.21      
Oct 18 20:53 Calm 10 Clear CLR 54 46     74%     30.2 30.2      
Oct 18 19:53 3 10 Clear CLR 58 46     65%     30.2 30.2      
Oct 18 18:53 Calm 10 Partly Cloudy SCT250 61 46     58%     30.19 30.18      
Oct 18 17:53 Calm 10 Clear CLR 65 44     47%     30.17 30.17      
Oct 18 16:53 SW 5 10 Clear CLR 67 39     36%     30.17 30.16      
Oct 18 15:53 Calm 10 Partly Cloudy SCT250 68 42     39%     30.17 30.17      
Oct 18 14:53 5 10 Clear CLR 68 42     39%     30.18 30.17      
Oct 18 13:53 Calm 10 Clear CLR 66 41     40%     30.18 30.18      
Oct 18 12:53 SSW 7 10 Partly Cloudy SCT200 64 43     46%     30.18 30.18      
Oct 18 11:53 SSE 7 10 Mostly Cloudy BKN250 60 45     57%     30.19 30.19      
Oct 18 10:53 SSE 7 10 Mostly Cloudy BKN200 57 44     62%     30.18 30.18      
Oct 18 09:53 S 6 10 Mostly Cloudy SCT200 BKN250 51 43     74%     30.19 30.19      
Oct 18 08:53 SE 6 10 Mostly Cloudy FEW200 BKN250 46 42     86% 43   30.18 30.17      
Oct 18 07:53 SSE 7 10 Mostly Cloudy BKN200 43 41     93% 39   30.16 30.16      
Oct 18 06:53 SE 5 10 Mostly Clear FEW200 44 41     89% 41   30.16 30.16      
Oct 18 05:53 Calm 10 Clear CLR 45 42     90%     30.15 30.15      
Oct 18 04:53 SSE 5 9 Clear CLR 43 40     89% 40   30.14 30.14      
Oct 18 03:53 Calm 10 Clear CLR 47 43     86%     30.13 30.12      
Oct 18 02:53 Calm 10 Mostly Clear FEW020 47 43     86%     30.12 30.12      
Oct 18 01:53 SSE 5 10 Clear CLR 44 41     89% 41   30.12 30.12      
Oct 18 00:53 Calm 10 Clear CLR 48 43     83%     30.12 30.12      
Oct 17 23:53 Calm 10 Mostly Clear FEW020 49 43     80%     30.12 30.11      
Oct 17 22:53 Calm 10 Clear CLR 51 44     77%     30.11 30.1      
Oct 17 21:53 SSE 5 10 Clear CLR 51 43     74%     30.1 30.09      
Oct 17 20:53 Calm 10 Clear CLR 54 46     74%     30.1 30.1      
Oct 17 19:53 Calm 10 Clear CLR 56 45     67%     30.1 30.1      
Oct 17 18:53 Calm 10 Clear   60 45     57%     30.09 30.09      
Oct 17 17:53 W 3 10 Clear CLR 66 39     37%     30.08 30.08      
Oct 17 16:53 5 10 Clear CLR 68 39     35%     30.08 30.08      
Oct 17 15:53 NW 5 10 Mostly Clear FEW250 69 40     35%     30.09 30.09      
Oct 17 14:53 5 10 Clear CLR 68 41     37%     30.11 30.11      
Oct 17 13:53 NW 3 10 Clear CLR 66 43     43%     30.14 30.14      
Oct 17 12:53 Calm 6 Haze FEW200 63 46     54%     30.17 30.17      
Oct 17 11:53 Calm 6 Haze FEW003 SCT200 58 49     72%     30.19 30.19      
Oct 17 10:53 Calm 5 Fog/Mist FEW002 50 48     93%     30.21 30.2      
Oct 17 10:43 SSE 3 4 Fog/Mist SCT002 50 48     93%     30.21        
Oct 17 10:27 Calm 1.5 Fog/Mist OVC002 48 47     96%     30.21        
Oct 17 09:53 Calm 0.5 Clear VV002 47 46     97%     30.21 30.21      
Oct 17 08:53 Calm 0.25 Fog VV002 46 45     96%     30.2 30.2      
Oct 17 07:53 ESE 3 0.25 Fog VV002 46 45     96% 45   30.2 30.19      
Oct 17 06:53 Calm 0.5 Fog VV003 43 42     97%     30.2 30.19      
Oct 17 06:41 Calm 0.5 Fog VV003 45 43     93%     30.2        
Oct 17 05:53 SE 3 1 Fog/Mist VV002 45 44     97% 44   30.2 30.2      
Oct 17 05:39 Calm 1 Fog/Mist VV002 45 44     97%     30.2        
Oct 17 05:27 SE 3 0.75 Fog/Mist VV002 45 43     93% 44   30.2        
Oct 17 05:24 Calm 1.25 Fog/Mist SCT001 45 43     93%     30.2        
Oct 17 04:53 Calm 9 Mostly Clear FEW005 46 43     89%     30.2 30.2      
Oct 17 03:53 Calm 10 Clear CLR 44 42     93%     30.2 30.19      
Oct 17 02:53 Calm 10 Clear CLR 46 43     89%     30.2 30.2      
Oct 17 01:53 Calm 10 Clear CLR 48 44     86%     30.21 30.21      
Oct 17 00:53 Calm 10 Clear CLR 49 46     90%     30.22 30.22      
Oct 16 23:53 Calm 10 Clear CLR 52 47     83%     30.23 30.23      
Oct 16 22:53 Calm 10 Clear CLR 54 47     77%     30.23 30.23      
Oct 16 20:53 Calm 10 Clear CLR 57 47     69%     30.23 30.22      
Oct 16 19:53 Calm 10 Clear CLR 59 47     64%     30.23 30.23      
Oct 16 18:53 NW 3 10 Clear CLR 62 47     58%     30.21 30.21      
Oct 16 17:53 NW 5 10 Clear CLR 65 47     52%     30.21 30.21      
Oct 16 16:53 NW 6 10 Clear   68 46     45%     30.22 30.21      
Oct 16 15:53 NW 5 10 Clear CLR 68 46     45%     30.23 30.23      
Oct 16 14:53 NW 6 10 Clear CLR 66 46     48%     30.25 30.25      
Oct 16 13:53 N 6 10 Clear CLR 64 45     50%     30.27 30.27      
Oct 16 12:53 6 10 Clear CLR 62 45     53%     30.29 30.29      
Oct 16 11:53 NW 6 10 Clear CLR 61 47     60%     30.3 30.3      
Oct 16 10:53 Calm 10 Clear CLR 58 47     67%     30.31 30.3      
May 15 05:53 SSW 6 10 Cloudy OVC008 55 51     86%     29.92 29.92      
May 14 14:53 NNW 8 10 Clear CLR 83 51     33%   81 29.88 29.88      
May 13 17:53 NW 7 10 Clear CLR 81 47     30%   80 29.87 29.87      
May 13 11:53 Calm 10 Clear CLR 71 54     55%   70 29.95 29.94      
May 13 10:53 6 10 Clear CLR 69 53     57%     29.95 29.95      
May 13 08:53 ENE 3 10 Clear CLR 64 51     63%     29.98 29.97      
May 12 01:53 SE 6 10 Clear CLR 53 47     80%     30.19 30.19      
May 12 00:53 Calm 10 Clear CLR 57 46     67%     30.19 30.19      
May 11 17:53 3 10 Partly Cloudy SCT046 67 46     47%     30.2 30.2      
Jun 12 03:53 SSE 8 10 Mostly Cloudy BKN060 53 51     93%     30 30      
Jun 12 02:53 SSE 7 10 Mostly Cloudy BKN055 54 51     90%     30 29.99      
Jun 11 22:53 Calm 10 Clear CLR 61 49     64%     29.99 29.99      
Jun 11 14:53 NW 8 10 Clear   69 48     47%     30 29.99      
Jun 11 01:53 Calm 10 Mostly Cloudy BKN085 57 47     69%     29.97 29.97      
Jun 10 23:53 Calm 10 Cloudy OVC075 59 47     64%     29.95 29.95      
Jun 10 15:53 NNW 7 10 Clear   65 44     47%     29.85 29.85      
Jun 08 08:44 SSE 8 10 Light Rain SCT007 BKN038 OVC095 57 57     100%     29.66   0    
Jun 07 14:53 6 10 Cloudy SCT140 OVC250 79 54     42%   79 29.69 29.69      
Jun 06 00:53 3 10 Clear CLR 60 46     60%     30.04 30.04      
Jun 05 20:53 NW 6 10 Clear CLR 65 46     50%     30.05 30.05      
Jun 05 19:53 NW 6 10 Mostly Cloudy BKN200 67 47     49%     30.05 30.05      
Jun 05 15:53 WNW 9 10 Mostly Cloudy BKN250 71 45     39%   70 30.08 30.07